AAL2389 KORD-CYYC

Flight info

Callsign AAL2389
Flight time 3h 16m
Altitude 36000
Route MYKIE DCT MONNY DCT SMIDD DCT MCW DCT ABR J70 DIK DCT GGW DCT VESDO EBGAL7
Aircraft B38M/M-SDE1FGHILORVWXY/HB1

Departure

Time 2026-05-06 02:22
Airport Chicago O'Hare International Airport (KORD)

Arrival

Time 2026-05-06 05:38
Airport Calgary International Airport (CYYC)
Time Latitude Longitude Altitude Speed Heading
2026-05-06 01:59 41.97335 -87.90100 671 ft 0 kts 90°
2026-05-06 02:11 41.97335 -87.90101 671 ft 2 kts 90°
2026-05-06 02:12 41.97336 -87.90135 671 ft 4 kts 96°
2026-05-06 02:12 41.97342 -87.90169 670 ft 4 kts 125°
2026-05-06 02:12 41.97357 -87.90182 668 ft 1 kts 180°
2026-05-06 02:15 41.97349 -87.90182 666 ft 4 kts 181°
2026-05-06 02:15 41.97280 -87.90184 671 ft 15 kts 180°
2026-05-06 02:15 41.97191 -87.90152 671 ft 14 kts 152°
2026-05-06 02:16 41.97135 -87.90072 671 ft 12 kts 91°
2026-05-06 02:16 41.97137 -87.89940 671 ft 16 kts 86°
2026-05-06 02:16 41.97170 -87.89780 671 ft 18 kts 64°
2026-05-06 02:16 41.97223 -87.89649 670 ft 15 kts 63°
2026-05-06 02:17 41.97218 -87.89534 671 ft 14 kts 130°
2026-05-06 02:17 41.97194 -87.89391 671 ft 19 kts 89°
2026-05-06 02:17 41.97194 -87.89204 671 ft 21 kts 89°
2026-05-06 02:17 41.97195 -87.89015 671 ft 19 kts 90°
2026-05-06 02:18 41.97194 -87.88828 671 ft 21 kts 91°
2026-05-06 02:18 41.97194 -87.88632 671 ft 21 kts 89°
2026-05-06 02:18 41.97186 -87.88482 670 ft 13 kts 113°
2026-05-06 02:18 41.97186 -87.88376 672 ft 11 kts 78°
2026-05-06 02:19 41.97195 -87.88253 672 ft 14 kts 88°
2026-05-06 02:19 41.97196 -87.88122 672 ft 12 kts 89°
2026-05-06 02:19 41.97173 -87.88042 672 ft 9 kts 155°
2026-05-06 02:19 41.97098 -87.88036 672 ft 10 kts 179°
2026-05-06 02:20 41.96955 -87.88030 674 ft 10 kts 200°
2026-05-06 02:20 41.96931 -87.88051 674 ft 0 kts 219°
2026-05-06 02:21 41.96904 -87.88082 673 ft 16 kts 221°
2026-05-06 02:21 41.96649 -87.88385 670 ft 86 kts 221°
2026-05-06 02:21 41.96037 -87.89109 671 ft 150 kts 221°
2026-05-06 02:21 41.95149 -87.90158 939 ft 181 kts 224°
2026-05-06 02:22 41.94185 -87.91310 1690 ft 189 kts 225°
2026-05-06 02:22 41.93117 -87.92362 2616 ft 190 kts 217°
2026-05-06 02:22 41.91958 -87.93346 3062 ft 211 kts 216°
2026-05-06 02:22 41.90627 -87.94476 3478 ft 235 kts 216°
2026-05-06 02:23 41.89439 -87.96017 3922 ft 246 kts 250°
2026-05-06 02:23 41.89145 -87.98166 4923 ft 237 kts 276°
2026-05-06 02:23 41.89384 -88.00425 5480 ft 254 kts 279°
2026-05-06 02:23 41.89545 -88.02843 6224 ft 262 kts 277°
2026-05-06 02:24 41.89703 -88.05281 7136 ft 263 kts 277°
2026-05-06 02:24 41.89866 -88.07720 8131 ft 261 kts 275°
2026-05-06 02:24 41.90032 -88.10142 9125 ft 260 kts 274°
2026-05-06 02:24 41.90199 -88.12568 9869 ft 262 kts 273°
2026-05-06 02:25 41.90367 -88.15004 10079 ft 265 kts 273°
2026-05-06 02:25 41.90535 -88.17558 10405 ft 285 kts 273°
2026-05-06 02:25 41.90711 -88.20286 10779 ft 301 kts 273°
2026-05-06 02:25 41.90895 -88.23122 11269 ft 312 kts 274°
2026-05-06 02:26 41.91087 -88.26059 11943 ft 316 kts 274°
2026-05-06 02:26 41.91287 -88.29012 12702 ft 320 kts 274°
2026-05-06 02:26 41.91489 -88.31998 13447 ft 323 kts 274°
2026-05-06 02:26 41.91692 -88.35012 14134 ft 326 kts 274°
2026-05-06 02:27 41.91897 -88.38044 14826 ft 327 kts 274°
2026-05-06 02:27 41.92102 -88.41095 15519 ft 329 kts 274°
2026-05-06 02:27 41.92308 -88.44169 16194 ft 331 kts 273°
2026-05-06 02:27 41.92515 -88.47252 16870 ft 334 kts 273°
2026-05-06 02:28 41.92721 -88.50361 17577 ft 335 kts 273°
2026-05-06 02:28 41.92929 -88.53488 18233 ft 337 kts 272°
2026-05-06 02:28 41.93136 -88.56626 18775 ft 340 kts 272°
2026-05-06 02:28 41.93345 -88.59797 19324 ft 342 kts 272°
2026-05-06 02:29 41.93554 -88.62991 19856 ft 344 kts 272°
2026-05-06 02:29 41.93764 -88.66204 20383 ft 347 kts 272°
2026-05-06 02:29 41.93972 -88.69398 20899 ft 349 kts 272°
2026-05-06 02:29 41.94183 -88.72656 21406 ft 351 kts 272°
2026-05-06 02:30 41.94395 -88.75935 21925 ft 354 kts 272°
2026-05-06 02:30 41.94607 -88.79237 22424 ft 356 kts 271°
2026-05-06 02:30 41.94819 -88.82564 22920 ft 359 kts 271°
2026-05-06 02:30 41.95033 -88.85914 23417 ft 361 kts 271°
2026-05-06 02:31 41.95247 -88.89292 23823 ft 364 kts 271°
2026-05-06 02:31 41.95460 -88.92685 24233 ft 365 kts 271°
2026-05-06 02:31 41.95674 -88.96092 24648 ft 367 kts 271°
2026-05-06 02:31 41.95888 -88.99515 25052 ft 369 kts 271°
2026-05-06 02:32 41.96102 -89.02956 25453 ft 370 kts 271°
2026-05-06 02:32 41.96317 -89.06409 25865 ft 372 kts 271°
2026-05-06 02:32 41.96532 -89.09880 26249 ft 374 kts 271°
2026-05-06 02:32 41.96746 -89.13368 26628 ft 375 kts 270°
2026-05-06 02:33 41.96959 -89.16867 27020 ft 377 kts 270°
2026-05-06 02:33 41.97099 -89.19191 27265 ft 378 kts 270°
2026-05-06 02:33 41.97595 -89.27439 28129 ft 381 kts 270°
2026-05-06 02:34 41.97809 -89.30999 28485 ft 383 kts 269°
2026-05-06 02:34 41.98021 -89.34571 28829 ft 384 kts 269°
2026-05-06 02:34 41.98234 -89.38154 29175 ft 386 kts 269°
2026-05-06 02:34 41.98443 -89.41704 29495 ft 387 kts 269°
2026-05-06 02:35 41.98658 -89.45361 29968 ft 386 kts 269°
2026-05-06 02:35 41.98866 -89.48896 30400 ft 384 kts 269°
2026-05-06 02:35 41.99074 -89.52455 30879 ft 379 kts 269°
2026-05-06 02:35 41.99279 -89.55970 31384 ft 375 kts 269°
2026-05-06 02:36 41.99480 -89.59435 31916 ft 369 kts 270°
2026-05-06 02:36 41.99677 -89.62853 32449 ft 364 kts 270°
2026-05-06 02:36 41.99870 -89.66221 32985 ft 359 kts 270°
2026-05-06 02:36 42.00060 -89.69541 33522 ft 353 kts 270°
2026-05-06 02:37 42.00245 -89.72806 34034 ft 348 kts 270°
2026-05-06 02:37 42.00427 -89.76030 34458 ft 344 kts 270°
2026-05-06 02:37 42.00607 -89.79228 34764 ft 342 kts 271°
2026-05-06 02:37 42.00784 -89.82412 35025 ft 342 kts 271°
2026-05-06 02:38 42.00960 -89.85600 35284 ft 341 kts 271°
2026-05-06 02:38 42.01135 -89.88778 35524 ft 341 kts 271°
2026-05-06 02:38 42.01308 -89.91941 35774 ft 340 kts 271°
2026-05-06 02:38 42.01480 -89.95117 35892 ft 341 kts 271°
2026-05-06 02:39 42.01651 -89.98295 35889 ft 340 kts 271°
2026-05-06 02:39 42.01990 -90.04624 35921 ft 340 kts 270°
2026-05-06 02:40 42.02325 -90.10964 35924 ft 340 kts 270°
2026-05-06 02:40 42.02658 -90.17305 35922 ft 340 kts 270°
2026-05-06 02:41 42.02987 -90.23645 35922 ft 340 kts 270°
2026-05-06 02:41 42.03312 -90.29984 35921 ft 340 kts 270°
2026-05-06 02:42 42.03634 -90.36329 35926 ft 340 kts 270°
2026-05-06 02:42 42.03950 -90.42636 35916 ft 342 kts 270°
2026-05-06 02:43 42.04267 -90.49034 35913 ft 343 kts 270°
2026-05-06 02:43 42.04581 -90.55428 35912 ft 343 kts 270°
2026-05-06 02:44 42.04891 -90.61815 35907 ft 343 kts 270°
2026-05-06 02:44 42.05198 -90.68218 35905 ft 343 kts 270°
2026-05-06 02:45 42.05502 -90.74618 35905 ft 343 kts 270°
2026-05-06 02:45 42.05802 -90.81034 35908 ft 345 kts 270°
2026-05-06 02:46 42.06101 -90.87489 35908 ft 346 kts 270°
2026-05-06 02:46 42.06395 -90.93937 35913 ft 346 kts 270°
2026-05-06 02:47 42.06687 -91.00398 35911 ft 346 kts 270°
2026-05-06 02:47 42.06973 -91.06816 35914 ft 346 kts 270°
2026-05-06 02:48 42.07156 -91.10969 35914 ft 346 kts 270°
2026-05-06 02:48 42.07188 -91.11705 35915 ft 346 kts 270°
2026-05-06 02:49 42.07469 -91.18172 35910 ft 347 kts 269°
2026-05-06 02:49 42.07751 -91.24658 35912 ft 347 kts 270°
2026-05-06 02:49 42.08274 -91.27859 35893 ft 357 kts 285°
2026-05-06 02:50 42.09503 -91.30828 35924 ft 369 kts 292°
2026-05-06 02:50 42.12322 -91.36638 35919 ft 372 kts 294°
2026-05-06 02:51 42.15226 -91.42418 35913 ft 372 kts 294°
2026-05-06 02:51 42.18152 -91.48177 35917 ft 372 kts 294°
2026-05-06 02:52 42.21089 -91.53953 35939 ft 376 kts 295°
2026-05-06 02:52 42.24055 -91.59795 35926 ft 378 kts 295°
2026-05-06 02:53 42.27028 -91.65660 35923 ft 378 kts 295°
2026-05-06 02:53 42.29997 -91.71533 35924 ft 378 kts 295°
2026-05-06 02:54 42.32943 -91.77368 35925 ft 378 kts 294°
2026-05-06 02:54 42.35919 -91.83275 35931 ft 378 kts 294°
2026-05-06 02:55 42.38882 -91.89166 35981 ft 379 kts 294°
2026-05-06 02:55 42.41827 -91.95035 35991 ft 381 kts 295°
2026-05-06 02:56 42.44829 -92.01027 35981 ft 382 kts 295°
2026-05-06 02:56 42.47807 -92.06986 35977 ft 382 kts 295°
2026-05-06 02:57 42.50760 -92.12904 35976 ft 382 kts 295°
2026-05-06 02:57 42.53730 -92.18870 35947 ft 382 kts 295°
2026-05-06 02:58 42.56702 -92.24851 35950 ft 382 kts 295°
2026-05-06 02:58 42.59668 -92.30830 35997 ft 383 kts 295°
2026-05-06 02:59 42.62653 -92.36864 35953 ft 386 kts 295°
2026-05-06 02:59 42.65644 -92.42919 35953 ft 386 kts 295°
2026-05-06 03:00 42.68631 -92.48980 35949 ft 386 kts 295°
2026-05-06 03:00 42.71619 -92.55051 35953 ft 386 kts 295°
2026-05-06 03:01 42.74601 -92.61121 35953 ft 386 kts 295°
2026-05-06 03:01 42.77577 -92.67191 35971 ft 386 kts 295°
2026-05-06 03:02 42.80565 -92.73292 35954 ft 388 kts 295°
2026-05-06 03:02 42.83557 -92.79415 35954 ft 388 kts 295°
2026-05-06 03:03 42.86548 -92.85548 35961 ft 388 kts 295°
2026-05-06 03:03 42.89534 -92.91685 35953 ft 388 kts 295°
2026-05-06 03:04 42.92510 -92.97812 35954 ft 388 kts 295°
2026-05-06 03:04 42.94987 -93.02922 35958 ft 388 kts 295°
2026-05-06 03:05 42.97967 -93.09080 35998 ft 389 kts 295°
2026-05-06 03:05 43.01429 -93.16251 35968 ft 389 kts 295°
2026-05-06 03:06 43.03921 -93.21424 35974 ft 389 kts 295°
2026-05-06 03:06 43.06888 -93.27593 35978 ft 389 kts 295°
2026-05-06 03:07 43.09890 -93.33763 35981 ft 390 kts 296°
2026-05-06 03:07 43.12966 -93.39879 35983 ft 390 kts 296°
2026-05-06 03:08 43.16033 -93.46008 35984 ft 390 kts 296°
2026-05-06 03:08 43.19096 -93.52144 36015 ft 391 kts 296°
2026-05-06 03:09 43.22138 -93.58252 36005 ft 390 kts 296°
2026-05-06 03:09 43.25219 -93.64450 35998 ft 390 kts 296°
2026-05-06 03:10 43.28252 -93.70564 35999 ft 390 kts 296°
2026-05-06 03:10 43.31307 -93.76735 35977 ft 391 kts 296°
2026-05-06 03:11 43.34350 -93.82895 35989 ft 391 kts 296°
2026-05-06 03:11 43.37405 -93.89092 36014 ft 392 kts 296°
2026-05-06 03:12 43.40459 -93.95301 35992 ft 392 kts 296°
2026-05-06 03:12 43.43508 -94.01512 35994 ft 392 kts 296°
2026-05-06 03:13 43.46553 -94.07728 35995 ft 392 kts 296°
2026-05-06 03:13 43.49596 -94.13953 36002 ft 392 kts 296°
2026-05-06 03:14 43.52635 -94.20183 36016 ft 392 kts 296°
2026-05-06 03:14 43.55672 -94.26424 36051 ft 392 kts 296°
2026-05-06 03:15 43.58700 -94.32656 36020 ft 390 kts 296°
2026-05-06 03:15 43.61713 -94.38873 36021 ft 391 kts 296°
2026-05-06 03:16 43.64731 -94.45112 36017 ft 390 kts 296°
2026-05-06 03:16 43.67743 -94.51354 36007 ft 391 kts 296°
2026-05-06 03:17 43.70751 -94.57601 36013 ft 391 kts 296°
2026-05-06 03:17 43.73739 -94.63819 36049 ft 391 kts 296°
2026-05-06 03:18 43.76748 -94.70093 36017 ft 391 kts 296°
2026-05-06 03:18 43.79750 -94.76367 36016 ft 391 kts 296°
2026-05-06 03:19 43.82752 -94.82653 36017 ft 391 kts 296°
2026-05-06 03:19 43.85749 -94.88943 36016 ft 391 kts 296°
2026-05-06 03:20 43.90235 -94.98384 36015 ft 392 kts 296°
2026-05-06 03:20 43.93235 -95.04715 36039 ft 394 kts 296°
2026-05-06 03:21 43.96254 -95.11101 36027 ft 396 kts 296°
2026-05-06 03:21 43.99276 -95.17505 36023 ft 396 kts 296°
2026-05-06 03:22 44.02291 -95.23903 36029 ft 396 kts 296°
2026-05-06 03:22 44.05304 -95.30320 36028 ft 396 kts 296°
2026-05-06 03:23 44.08318 -95.36748 36032 ft 397 kts 296°
2026-05-06 03:23 44.11323 -95.43171 36045 ft 401 kts 297°
2026-05-06 03:24 44.14388 -95.49743 36039 ft 403 kts 297°
2026-05-06 03:24 44.17406 -95.56226 36036 ft 403 kts 297°
2026-05-06 03:25 44.20450 -95.62780 36034 ft 402 kts 297°
2026-05-06 03:25 44.23487 -95.69332 36037 ft 402 kts 297°
2026-05-06 03:26 44.26523 -95.75897 36037 ft 403 kts 297°
2026-05-06 03:26 44.29563 -95.82486 36045 ft 405 kts 297°
2026-05-06 03:27 44.32614 -95.89115 36041 ft 406 kts 297°
2026-05-06 03:27 44.35660 -95.95749 36047 ft 406 kts 297°
2026-05-06 03:28 44.38708 -96.02400 36046 ft 406 kts 297°
2026-05-06 03:28 44.41747 -96.09049 36062 ft 406 kts 297°
2026-05-06 03:29 44.44791 -96.15721 36055 ft 407 kts 297°
2026-05-06 03:29 44.47845 -96.22433 36047 ft 410 kts 297°
2026-05-06 03:30 44.50909 -96.29183 36051 ft 410 kts 297°
2026-05-06 03:30 44.53946 -96.35887 36052 ft 410 kts 297°
2026-05-06 03:31 44.57001 -96.42649 36057 ft 410 kts 297°
2026-05-06 03:31 44.60054 -96.49419 36058 ft 411 kts 297°
2026-05-06 03:32 44.63116 -96.56229 36053 ft 413 kts 297°
2026-05-06 03:32 44.66178 -96.63055 36058 ft 413 kts 297°
2026-05-06 03:33 44.69234 -96.69883 36049 ft 413 kts 297°
2026-05-06 03:33 44.72288 -96.76722 36055 ft 413 kts 297°
2026-05-06 03:34 44.75337 -96.83567 36045 ft 413 kts 297°
2026-05-06 03:34 44.78384 -96.90423 36045 ft 414 kts 297°
2026-05-06 03:35 44.81436 -96.97307 36047 ft 415 kts 297°
2026-05-06 03:35 44.84473 -97.04175 36037 ft 416 kts 297°
2026-05-06 03:36 44.87526 -97.11097 36034 ft 416 kts 297°
2026-05-06 03:36 44.90573 -97.18021 36035 ft 416 kts 297°
2026-05-06 03:37 44.93620 -97.24959 36036 ft 416 kts 297°
2026-05-06 03:37 44.96661 -97.31901 36059 ft 416 kts 297°
2026-05-06 03:38 44.99708 -97.38878 36048 ft 418 kts 297°
2026-05-06 03:38 45.02760 -97.45881 36055 ft 418 kts 297°
2026-05-06 03:39 45.05802 -97.52878 36057 ft 418 kts 297°
2026-05-06 03:39 45.08846 -97.59898 36058 ft 418 kts 297°
2026-05-06 03:40 45.11875 -97.66900 36054 ft 418 kts 297°
2026-05-06 03:40 45.14913 -97.73941 36051 ft 421 kts 297°
2026-05-06 03:41 45.17970 -97.81043 36053 ft 422 kts 297°
2026-05-06 03:41 45.21024 -97.88154 36064 ft 422 kts 297°
2026-05-06 03:42 45.24070 -97.95259 36061 ft 422 kts 297°
2026-05-06 03:42 45.27094 -98.02331 36061 ft 422 kts 297°
2026-05-06 03:43 45.30134 -98.09457 36081 ft 422 kts 298°
2026-05-06 03:43 45.33179 -98.16615 36061 ft 424 kts 298°
2026-05-06 03:44 45.36221 -98.23780 36066 ft 424 kts 298°
2026-05-06 03:44 45.39267 -98.30975 36062 ft 424 kts 298°
2026-05-06 03:45 45.42187 -98.38248 36065 ft 422 kts 293°
2026-05-06 03:45 45.44782 -98.45751 36073 ft 423 kts 294°
2026-05-06 03:46 45.47421 -98.53232 36081 ft 424 kts 294°
2026-05-06 03:46 45.50075 -98.60741 36068 ft 425 kts 294°
2026-05-06 03:47 45.52732 -98.68275 36075 ft 426 kts 295°
2026-05-06 03:47 45.55384 -98.75823 36080 ft 425 kts 295°
2026-05-06 03:48 45.58029 -98.83372 36078 ft 425 kts 295°
2026-05-06 03:48 45.60649 -98.90871 36078 ft 425 kts 295°
2026-05-06 03:49 45.63287 -98.98438 36083 ft 426 kts 295°
2026-05-06 03:49 45.65924 -99.06028 36079 ft 427 kts 295°
2026-05-06 03:50 45.68561 -99.13642 36087 ft 427 kts 295°
2026-05-06 03:50 45.71193 -99.21259 36085 ft 427 kts 295°
2026-05-06 03:51 45.73823 -99.28893 36084 ft 427 kts 295°
2026-05-06 03:51 45.76444 -99.36526 36084 ft 427 kts 295°
2026-05-06 03:52 45.79063 -99.44171 36095 ft 428 kts 295°
2026-05-06 03:52 45.81679 -99.51831 36085 ft 429 kts 295°
2026-05-06 03:53 45.84296 -99.59520 36088 ft 429 kts 295°
2026-05-06 03:53 45.86911 -99.67221 36089 ft 429 kts 295°
2026-05-06 03:54 45.89519 -99.74923 36086 ft 429 kts 295°
2026-05-06 03:54 45.92118 -99.82625 36085 ft 429 kts 295°
2026-05-06 03:55 45.94278 -99.89038 36104 ft 429 kts 295°
2026-05-06 03:55 45.97322 -99.98106 36090 ft 433 kts 295°
2026-05-06 03:56 45.99915 -100.05857 36088 ft 433 kts 295°
2026-05-06 03:56 46.02513 -100.13643 36088 ft 433 kts 295°
2026-05-06 03:57 46.04690 -100.20188 36088 ft 433 kts 295°
2026-05-06 03:57 46.07287 -100.28014 36089 ft 433 kts 295°
2026-05-06 03:58 46.09875 -100.35839 36090 ft 433 kts 295°
2026-05-06 03:58 46.12463 -100.43685 36088 ft 434 kts 295°
2026-05-06 03:59 46.15046 -100.51541 36089 ft 435 kts 295°
2026-05-06 03:59 46.17630 -100.59427 36095 ft 435 kts 295°
2026-05-06 04:00 46.20207 -100.67311 36095 ft 434 kts 295°
2026-05-06 04:00 46.22762 -100.75151 36106 ft 434 kts 295°
2026-05-06 04:01 46.25323 -100.83038 36106 ft 435 kts 295°
2026-05-06 04:01 46.27883 -100.90941 36107 ft 435 kts 295°
2026-05-06 04:02 46.30443 -100.98874 36110 ft 435 kts 295°
2026-05-06 04:02 46.32998 -101.06812 36105 ft 435 kts 295°
2026-05-06 04:03 46.35547 -101.14753 36114 ft 435 kts 295°
2026-05-06 04:03 46.38090 -101.22706 36115 ft 435 kts 295°
2026-05-06 04:04 46.40627 -101.30659 36113 ft 435 kts 295°
2026-05-06 04:04 46.43160 -101.38627 36117 ft 436 kts 295°
2026-05-06 04:05 46.45692 -101.46619 36117 ft 436 kts 295°
2026-05-06 04:05 46.48217 -101.54611 36118 ft 436 kts 295°
2026-05-06 04:06 46.50737 -101.62615 36115 ft 436 kts 295°
2026-05-06 04:06 46.53252 -101.70624 36121 ft 436 kts 295°
2026-05-06 04:07 46.55758 -101.78635 36117 ft 436 kts 295°
2026-05-06 04:07 46.58245 -101.86608 36117 ft 437 kts 295°
2026-05-06 04:08 46.60750 -101.94665 36116 ft 437 kts 295°
2026-05-06 04:08 46.63251 -102.02733 36116 ft 437 kts 295°
2026-05-06 04:09 46.65747 -102.10809 36116 ft 437 kts 295°
2026-05-06 04:09 46.68235 -102.18888 36110 ft 437 kts 295°
2026-05-06 04:10 46.70720 -102.26980 36100 ft 438 kts 295°
2026-05-06 04:10 46.73201 -102.35083 36103 ft 438 kts 295°
2026-05-06 04:11 46.75683 -102.43215 36098 ft 439 kts 295°
2026-05-06 04:11 46.78162 -102.51357 36088 ft 439 kts 295°
2026-05-06 04:12 46.80619 -102.59452 36080 ft 439 kts 295°
2026-05-06 04:12 46.83085 -102.67603 36075 ft 439 kts 296°
2026-05-06 04:13 46.85550 -102.75763 36057 ft 439 kts 296°
2026-05-06 04:13 46.88491 -102.83521 36074 ft 438 kts 301°
2026-05-06 04:14 46.91442 -102.91342 36082 ft 439 kts 301°
2026-05-06 04:14 46.94378 -102.99170 36091 ft 439 kts 301°
2026-05-06 04:15 46.97308 -103.07004 36107 ft 439 kts 301°
2026-05-06 04:15 47.00235 -103.14853 36129 ft 439 kts 301°
2026-05-06 04:16 47.03157 -103.22713 36129 ft 439 kts 300°
2026-05-06 04:16 47.06075 -103.30586 36135 ft 440 kts 301°
2026-05-06 04:17 47.08995 -103.38486 36133 ft 440 kts 301°
2026-05-06 04:17 47.11909 -103.46392 36141 ft 440 kts 301°
2026-05-06 04:18 47.14820 -103.54311 36138 ft 440 kts 301°
2026-05-06 04:18 47.17721 -103.62230 36145 ft 440 kts 301°
2026-05-06 04:19 47.20621 -103.70168 36151 ft 441 kts 301°
2026-05-06 04:19 47.23521 -103.78128 36135 ft 442 kts 301°
2026-05-06 04:20 47.26415 -103.86100 36150 ft 441 kts 301°
2026-05-06 04:20 47.29302 -103.94075 36163 ft 441 kts 301°
2026-05-06 04:21 47.32186 -104.02066 36152 ft 441 kts 301°
2026-05-06 04:21 47.35063 -104.10061 36158 ft 441 kts 301°
2026-05-06 04:22 47.37916 -104.18014 36164 ft 442 kts 301°
2026-05-06 04:23 47.42225 -104.30067 36144 ft 442 kts 301°
2026-05-06 04:23 47.45084 -104.38102 36155 ft 442 kts 301°
2026-05-06 04:24 47.47932 -104.46125 36160 ft 442 kts 301°
2026-05-06 04:24 47.50782 -104.54178 36167 ft 442 kts 301°
2026-05-06 04:25 47.53629 -104.62246 36173 ft 442 kts 301°
2026-05-06 04:25 47.56468 -104.70319 36178 ft 442 kts 301°
2026-05-06 04:26 47.59302 -104.78403 36179 ft 442 kts 301°
2026-05-06 04:26 47.62130 -104.86493 36175 ft 441 kts 301°
2026-05-06 04:27 47.64943 -104.94565 36178 ft 441 kts 301°
2026-05-06 04:27 47.67749 -105.02642 36176 ft 440 kts 301°
2026-05-06 04:28 47.70547 -105.10718 36178 ft 440 kts 301°
2026-05-06 04:28 47.73318 -105.18746 36175 ft 440 kts 301°
2026-05-06 04:29 47.76102 -105.26840 36174 ft 440 kts 301°
2026-05-06 04:29 47.78881 -105.34940 36154 ft 440 kts 301°
2026-05-06 04:30 47.81649 -105.43032 36166 ft 438 kts 301°
2026-05-06 04:30 47.84404 -105.51112 36165 ft 438 kts 301°
2026-05-06 04:31 47.87156 -105.59209 36167 ft 438 kts 301°
2026-05-06 04:31 47.89902 -105.67312 36157 ft 438 kts 301°
2026-05-06 04:32 47.92642 -105.75424 36160 ft 438 kts 301°
2026-05-06 04:32 47.95377 -105.83547 36160 ft 438 kts 301°
2026-05-06 04:33 47.98107 -105.91678 36149 ft 438 kts 301°
2026-05-06 04:33 48.00822 -105.99794 36187 ft 437 kts 301°
2026-05-06 04:34 48.03532 -106.07917 36189 ft 437 kts 301°
2026-05-06 04:34 48.06235 -106.16049 36185 ft 437 kts 301°
2026-05-06 04:35 48.08935 -106.24193 36173 ft 437 kts 301°
2026-05-06 04:35 48.11611 -106.32286 36165 ft 437 kts 301°
2026-05-06 04:36 48.14301 -106.40442 36145 ft 437 kts 301°
2026-05-06 04:36 48.16982 -106.48600 36130 ft 436 kts 301°
2026-05-06 04:37 48.19657 -106.56763 36138 ft 436 kts 301°
2026-05-06 04:37 48.22522 -106.64719 36145 ft 430 kts 308°
2026-05-06 04:38 48.25706 -106.72340 36134 ft 432 kts 307°
2026-05-06 04:38 48.28851 -106.80040 36142 ft 432 kts 307°
2026-05-06 04:39 48.31980 -106.87741 36207 ft 432 kts 307°
2026-05-06 04:39 48.35104 -106.95452 36213 ft 432 kts 307°
2026-05-06 04:40 48.38221 -107.03170 36220 ft 432 kts 307°
2026-05-06 04:40 48.41333 -107.10897 36217 ft 432 kts 307°
2026-05-06 04:41 48.44440 -107.18634 36218 ft 432 kts 307°
2026-05-06 04:41 48.47540 -107.26377 36217 ft 431 kts 307°
2026-05-06 04:42 48.50613 -107.34073 36224 ft 431 kts 307°
2026-05-06 04:42 48.53698 -107.41823 36223 ft 431 kts 307°
2026-05-06 04:43 48.56782 -107.49591 36225 ft 431 kts 307°
2026-05-06 04:43 48.59858 -107.57363 36225 ft 431 kts 307°
2026-05-06 04:44 48.62924 -107.65132 36206 ft 428 kts 308°
2026-05-06 04:44 48.65957 -107.72841 36229 ft 426 kts 308°
2026-05-06 04:45 48.68984 -107.80556 36226 ft 426 kts 308°
2026-05-06 04:45 48.72006 -107.88281 36228 ft 426 kts 308°
2026-05-06 04:46 48.75021 -107.96012 36228 ft 426 kts 308°
2026-05-06 04:46 48.78030 -108.03747 36227 ft 426 kts 308°
2026-05-06 04:47 48.80523 -108.10173 36229 ft 425 kts 308°
2026-05-06 04:47 48.83513 -108.17903 36232 ft 425 kts 308°
2026-05-06 04:48 48.86498 -108.25641 36200 ft 424 kts 309°
2026-05-06 04:48 48.89462 -108.33348 36234 ft 422 kts 309°
2026-05-06 04:49 48.92416 -108.41051 36235 ft 422 kts 309°
2026-05-06 04:49 48.95363 -108.48760 36231 ft 420 kts 309°
2026-05-06 04:50 48.98293 -108.56444 36239 ft 420 kts 309°
2026-05-06 04:50 49.01217 -108.64135 36242 ft 420 kts 309°
2026-05-06 04:51 49.04138 -108.71842 36236 ft 420 kts 309°
2026-05-06 04:51 49.07054 -108.79558 36243 ft 420 kts 309°
2026-05-06 04:52 49.09962 -108.87275 36178 ft 419 kts 309°
2026-05-06 04:52 49.12848 -108.94957 36247 ft 416 kts 309°
2026-05-06 04:53 49.15699 -109.02570 36242 ft 416 kts 309°
2026-05-06 04:53 49.18566 -109.10244 36243 ft 416 kts 309°
2026-05-06 04:54 49.21428 -109.17928 36247 ft 416 kts 309°
2026-05-06 04:54 49.24283 -109.25617 36249 ft 416 kts 309°
2026-05-06 04:55 49.27132 -109.33312 36244 ft 414 kts 309°
2026-05-06 04:55 49.29964 -109.40984 36248 ft 414 kts 309°
2026-05-06 04:56 49.32791 -109.48666 36248 ft 414 kts 309°
2026-05-06 04:56 49.35609 -109.56345 36246 ft 413 kts 309°
2026-05-06 04:57 49.38419 -109.64024 36255 ft 413 kts 309°
2026-05-06 04:57 49.41220 -109.71701 36255 ft 413 kts 309°
2026-05-06 04:58 49.44020 -109.79398 36254 ft 413 kts 309°
2026-05-06 04:58 49.46815 -109.87107 36254 ft 413 kts 309°
2026-05-06 04:59 49.49606 -109.94826 36261 ft 413 kts 309°
2026-05-06 04:59 49.52388 -110.02542 36259 ft 413 kts 309°
2026-05-06 05:00 49.55176 -110.10268 36256 ft 413 kts 309°
2026-05-06 05:00 49.57959 -110.17987 36254 ft 410 kts 309°
2026-05-06 05:01 49.60709 -110.25680 36258 ft 409 kts 309°
2026-05-06 05:01 49.63454 -110.33343 36261 ft 409 kts 309°
2026-05-06 05:02 49.66195 -110.40979 36256 ft 409 kts 309°
2026-05-06 05:02 49.68955 -110.48652 36266 ft 409 kts 309°
2026-05-06 05:03 49.71725 -110.56328 36253 ft 409 kts 309°
2026-05-06 05:03 49.74491 -110.63974 36251 ft 407 kts 309°
2026-05-06 05:04 49.77255 -110.71604 36252 ft 407 kts 310°
2026-05-06 05:04 49.80024 -110.79240 36250 ft 407 kts 310°
2026-05-06 05:05 49.82784 -110.86863 36243 ft 405 kts 310°
2026-05-06 05:05 49.85539 -110.94471 36239 ft 404 kts 310°
2026-05-06 05:06 49.88292 -111.02072 36208 ft 404 kts 310°
2026-05-06 05:06 49.91039 -111.09646 36242 ft 402 kts 310°
2026-05-06 05:07 49.93791 -111.17201 36217 ft 402 kts 310°
2026-05-06 05:07 49.96546 -111.24747 36227 ft 402 kts 310°
2026-05-06 05:08 49.99298 -111.32307 36236 ft 402 kts 310°
2026-05-06 05:08 50.02050 -111.39876 36232 ft 402 kts 310°
2026-05-06 05:09 50.04802 -111.47434 36227 ft 401 kts 310°
2026-05-06 05:09 50.07531 -111.54912 36234 ft 400 kts 310°
2026-05-06 05:10 50.10279 -111.62434 36231 ft 399 kts 310°
2026-05-06 05:10 50.13027 -111.69946 36235 ft 399 kts 310°
2026-05-06 05:11 50.15777 -111.77454 36231 ft 399 kts 310°
2026-05-06 05:11 50.18533 -111.84968 36229 ft 399 kts 310°
2026-05-06 05:12 50.21293 -111.92475 36223 ft 398 kts 310°
2026-05-06 05:12 50.24056 -111.99968 36225 ft 398 kts 310°
2026-05-06 05:13 50.26814 -112.07445 36219 ft 398 kts 310°
2026-05-06 05:13 50.29570 -112.14952 36223 ft 398 kts 310°
2026-05-06 05:14 50.32332 -112.22443 36188 ft 397 kts 310°
2026-05-06 05:14 50.33724 -112.26190 35327 ft 401 kts 310°
2026-05-06 05:14 50.35147 -112.29987 34402 ft 407 kts 310°
2026-05-06 05:14 50.36577 -112.33780 33781 ft 402 kts 310°
2026-05-06 05:15 50.37995 -112.37517 33132 ft 399 kts 310°
2026-05-06 05:15 50.39407 -112.41231 32580 ft 394 kts 310°
2026-05-06 05:15 50.40801 -112.44896 32134 ft 388 kts 310°
2026-05-06 05:15 50.42168 -112.48499 31714 ft 382 kts 310°
2026-05-06 05:16 50.43503 -112.52014 31268 ft 377 kts 310°
2026-05-06 05:16 50.44837 -112.55530 30812 ft 373 kts 310°
2026-05-06 05:16 50.46163 -112.59016 30356 ft 370 kts 310°
2026-05-06 05:16 50.47475 -112.62463 29846 ft 366 kts 310°
2026-05-06 05:17 50.48777 -112.65874 29373 ft 362 kts 311°
2026-05-06 05:17 50.49988 -112.69331 28983 ft 364 kts 303°
2026-05-06 05:17 50.50977 -112.72912 28812 ft 352 kts 305°
2026-05-06 05:17 50.51990 -112.76435 28436 ft 360 kts 304°
2026-05-06 05:18 50.53038 -112.80041 27953 ft 364 kts 304°
2026-05-06 05:18 50.54102 -112.83675 27491 ft 367 kts 304°
2026-05-06 05:18 50.55170 -112.87314 27030 ft 366 kts 304°
2026-05-06 05:18 50.56233 -112.90932 26523 ft 364 kts 304°
2026-05-06 05:19 50.57291 -112.94533 26098 ft 361 kts 303°
2026-05-06 05:19 50.58340 -112.98110 25655 ft 359 kts 303°
2026-05-06 05:19 50.59382 -113.01672 25219 ft 357 kts 303°
2026-05-06 05:19 50.60418 -113.05215 24787 ft 355 kts 303°
2026-05-06 05:20 50.61441 -113.08722 24363 ft 353 kts 303°
2026-05-06 05:20 50.62462 -113.12226 23951 ft 351 kts 303°
2026-05-06 05:20 50.63477 -113.15713 23482 ft 349 kts 303°
2026-05-06 05:20 50.64486 -113.19181 23032 ft 347 kts 303°
2026-05-06 05:21 50.65485 -113.22622 22618 ft 344 kts 303°
2026-05-06 05:21 50.66472 -113.26031 22220 ft 340 kts 302°
2026-05-06 05:21 50.67447 -113.29398 21849 ft 336 kts 302°
2026-05-06 05:21 50.68413 -113.32740 21476 ft 333 kts 302°
2026-05-06 05:22 50.69429 -113.35996 21039 ft 326 kts 311°
2026-05-06 05:22 50.70935 -113.38569 20510 ft 318 kts 324°
2026-05-06 05:22 50.72570 -113.40911 20095 ft 318 kts 323°
2026-05-06 05:22 50.74222 -113.43237 19658 ft 318 kts 324°
2026-05-06 05:23 50.75863 -113.45519 19199 ft 319 kts 324°
2026-05-06 05:23 50.77535 -113.47824 18740 ft 319 kts 324°
2026-05-06 05:23 50.80901 -113.52434 17731 ft 320 kts 324°
2026-05-06 05:24 50.82583 -113.54733 17252 ft 319 kts 324°
2026-05-06 05:24 50.84261 -113.57029 16748 ft 319 kts 324°
2026-05-06 05:24 50.85942 -113.59330 16226 ft 320 kts 323°
2026-05-06 05:24 50.87625 -113.61635 15738 ft 320 kts 323°
2026-05-06 05:25 50.89298 -113.63929 15263 ft 315 kts 323°
2026-05-06 05:25 50.90926 -113.66163 14796 ft 306 kts 323°
2026-05-06 05:25 50.92505 -113.68335 14347 ft 296 kts 322°
2026-05-06 05:25 50.93920 -113.70700 13879 ft 296 kts 317°
2026-05-06 05:26 50.95303 -113.73120 13409 ft 295 kts 317°
2026-05-06 05:26 50.96685 -113.75516 12973 ft 294 kts 317°
2026-05-06 05:26 50.98058 -113.77882 12550 ft 287 kts 317°
2026-05-06 05:26 50.99387 -113.80166 12125 ft 277 kts 317°
2026-05-06 05:27 51.00674 -113.82370 11728 ft 267 kts 317°
2026-05-06 05:27 51.02150 -113.84005 11271 ft 256 kts 341°
2026-05-06 05:27 51.03881 -113.84446 10881 ft 254 kts 356°
2026-05-06 05:27 51.05634 -113.84541 10530 ft 249 kts 356°
2026-05-06 05:28 51.07319 -113.84600 10176 ft 242 kts 357°
2026-05-06 05:28 51.09010 -113.84636 9800 ft 240 kts 357°
2026-05-06 05:28 51.10666 -113.84656 9433 ft 242 kts 358°
2026-05-06 05:28 51.12342 -113.84669 9119 ft 239 kts 358°
2026-05-06 05:29 51.13998 -113.84675 8696 ft 239 kts 358°
2026-05-06 05:29 51.15662 -113.84679 8314 ft 239 kts 358°
2026-05-06 05:29 51.17321 -113.84679 8027 ft 236 kts 359°
2026-05-06 05:29 51.18930 -113.84673 7897 ft 226 kts 359°
2026-05-06 05:30 51.20481 -113.84668 7788 ft 223 kts 359°
2026-05-06 05:30 51.22036 -113.84662 7707 ft 224 kts 359°
2026-05-06 05:30 51.23601 -113.84655 7618 ft 225 kts 359°
2026-05-06 05:30 51.25169 -113.84648 7521 ft 225 kts 359°
2026-05-06 05:31 51.26736 -113.84641 7426 ft 226 kts 359°
2026-05-06 05:31 51.28312 -113.84634 7312 ft 227 kts 359°
2026-05-06 05:31 51.29892 -113.84715 7201 ft 227 kts 347°
2026-05-06 05:31 51.31268 -113.85791 7039 ft 220 kts 315°
2026-05-06 05:32 51.32086 -113.87803 6919 ft 217 kts 286°
2026-05-06 05:32 51.32247 -113.90174 6861 ft 216 kts 265°
2026-05-06 05:32 51.32124 -113.92551 6692 ft 211 kts 263°
2026-05-06 05:32 51.31977 -113.94850 6478 ft 203 kts 261°
2026-05-06 05:33 51.31824 -113.97027 6455 ft 194 kts 261°
2026-05-06 05:33 51.31635 -113.99160 6470 ft 193 kts 250°
2026-05-06 05:33 51.30929 -114.00902 6434 ft 187 kts 216°
2026-05-06 05:33 51.29768 -114.01697 6489 ft 186 kts 192°
2026-05-06 05:34 51.28478 -114.01962 6562 ft 188 kts 185°
2026-05-06 05:34 51.27168 -114.02080 6365 ft 188 kts 182°
2026-05-06 05:34 51.25883 -114.02121 6143 ft 182 kts 181°
2026-05-06 05:34 51.24628 -114.02129 5915 ft 180 kts 180°
2026-05-06 05:35 51.23375 -114.02131 5681 ft 179 kts 180°
2026-05-06 05:35 51.22141 -114.02131 5430 ft 173 kts 179°
2026-05-06 05:35 51.20997 -114.02131 5252 ft 153 kts 179°
2026-05-06 05:35 51.19967 -114.02131 5039 ft 146 kts 179°
2026-05-06 05:36 51.18958 -114.02132 4841 ft 144 kts 179°
2026-05-06 05:36 51.17956 -114.02131 4622 ft 144 kts 179°
2026-05-06 05:36 51.16957 -114.02130 4384 ft 143 kts 178°
2026-05-06 05:36 51.15967 -114.02130 4173 ft 144 kts 179°
2026-05-06 05:37 51.14965 -114.02145 3949 ft 144 kts 178°
2026-05-06 05:37 51.13963 -114.02139 3768 ft 144 kts 178°
2026-05-06 05:37 51.12967 -114.02135 3576 ft 142 kts 177°
2026-05-06 05:37 51.12357 -114.02132 3556 ft 117 kts 181°
2026-05-06 05:38 51.11768 -114.02134 3560 ft 62 kts 180°
2026-05-06 05:38 51.11408 -114.02132 3560 ft 31 kts 172°
2026-05-06 05:38 51.11241 -114.02013 3560 ft 19 kts 149°
2026-05-06 05:38 51.11155 -114.01883 3562 ft 13 kts 102°
2026-05-06 05:39 51.11209 -114.01795 3560 ft 13 kts
2026-05-06 05:39 51.11310 -114.01796 3560 ft 15 kts
2026-05-06 05:39 51.11422 -114.01797 3562 ft 17 kts
2026-05-06 05:39 51.11544 -114.01797 3561 ft 18 kts
2026-05-06 05:40 51.11675 -114.01796 3562 ft 19 kts
2026-05-06 05:40 51.11808 -114.01796 3562 ft 19 kts 360°
2026-05-06 05:40 51.11943 -114.01797 3560 ft 20 kts
2026-05-06 05:40 51.12084 -114.01795 3555 ft 21 kts
2026-05-06 05:41 51.12183 -114.01795 3562 ft 7 kts 359°
2026-05-06 05:41 51.12198 -114.01796 3562 ft 2 kts 359°
2026-05-06 05:41 51.12229 -114.01797 3560 ft 9 kts 359°
2026-05-06 05:41 51.12323 -114.01797 3562 ft 14 kts 358°
2026-05-06 05:42 51.12430 -114.01795 3562 ft 13 kts 359°
2026-05-06 05:42 51.12539 -114.01797 3562 ft 18 kts 358°
2026-05-06 05:42 51.12606 -114.01709 3562 ft 18 kts 90°
2026-05-06 05:42 51.12603 -114.01462 3562 ft 24 kts 90°
2026-05-06 05:43 51.12605 -114.01203 3562 ft 24 kts 88°
2026-05-06 05:43 51.12616 -114.00971 3562 ft 19 kts 89°
2026-05-06 05:43 51.12613 -114.00757 3562 ft 20 kts 90°
2026-05-06 05:43 51.12615 -114.00537 3562 ft 18 kts 89°
2026-05-06 05:44 51.12612 -114.00329 3562 ft 19 kts 91°
2026-05-06 05:44 51.12633 -114.00167 3562 ft 12 kts 45°
2026-05-06 05:44 51.12698 -114.00147 3562 ft 8 kts 359°
2026-05-06 05:44 51.12756 -114.00152 3562 ft 9 kts 348°
2026-05-06 05:45 51.12801 -114.00218 3558 ft 10 kts 282°
2026-05-06 05:45 51.12802 -114.00296 3562 ft 3 kts 269°
2026-05-06 05:45 51.12801 -114.00303 3562 ft 0 kts 268°